User: anonymous   Login
Location: Peralejo
(40.5415°N, 4.1259°W)
Time: 13:04:54
(UTC+00:00)
Language:

SJ 16-02 - Orbit

View from above orbital plane
View from above orbital plane
View from above satellite
View from above satellite

Ground track
Ground track

The orbit data is extracted from the following two-line orbital elements,

1 41634U 16043A   24176.17286813  .00001000  00000-0  10829-3 0  9992
2 41634  74.9997 203.8712 0008441 347.4954  12.6022 14.89335136433344
Epoch (UTC): 24 June 2024 04:08:55
Eccentricity: 0.0008441
inclination: 74.9997°
perigee height: 594 km
apogee height: 606 km
right ascension of ascending node: 203.8712°
argument of perigee: 347.4954°
revolutions per day: 14.89335136
mean anomaly at epoch: 12.6022°
orbit number at epoch: 43334

The dashed part of the orbit path shows where the satellite is in the earth's shadow,  

DLR